Time,TemperatureF,DewpointF,PressureIn,WindDirection,WindDirectionDegrees,WindSpeedMPH,WindSpeedGustMPH,Humidity,HourlyPrecipIn,Conditions,Clouds,dailyrainin,SoftwareType,DateUTC
2013-03-14 00:05:00,67.9,60.4,30.04,ESE,119,4.0,6.0,77,0.00,,,0.00,Wunderground v.1.15,2013-03-14 10:05:00,
2013-03-14 00:15:00,67.9,60.4,30.03,ESE,115,3.0,5.0,77,0.00,,,0.00,Wunderground v.1.15,2013-03-14 10:15:00,
2013-03-14 00:25:00,67.8,60.0,30.03,ESE,114,3.0,4.0,76,0.00,,,0.00,Wunderground v.1.15,2013-03-14 10:25:00,
2013-03-14 00:35:00,67.8,60.0,30.03,ESE,112,3.0,4.0,76,0.00,,,0.00,Wunderground v.1.15,2013-03-14 10:35:00,
2013-03-14 00:40:00,67.9,60.1,30.02,ESE,115,3.0,3.0,76,0.00,,,0.00,Wunderground v.1.15,2013-03-14 10:40:00,
2013-03-14 00:50:00,67.8,60.0,30.02,ESE,117,4.0,4.0,76,0.00,,,0.00,Wunderground v.1.15,2013-03-14 10:50:00,
2013-03-14 01:00:00,67.9,60.1,30.02,ESE,113,3.0,4.0,76,0.00,,,0.00,Wunderground v.1.15,2013-03-14 11:00:00,
2013-03-14 01:05:00,67.9,60.1,30.02,ESE,115,3.0,4.0,76,0.00,,,0.00,Wunderground v.1.15,2013-03-14 11:05:00,
2013-03-14 01:15:00,67.9,60.1,30.01,ESE,114,2.0,3.0,76,0.00,,,0.00,Wunderground v.1.15,2013-03-14 11:15:00,
2013-03-14 01:25:00,67.8,60.0,30.02,ESE,113,3.0,5.0,76,0.00,,,0.00,Wunderground v.1.15,2013-03-14 11:25:00,
2013-03-14 01:30:00,67.8,59.6,30.01,ESE,111,3.0,3.0,75,0.00,,,0.00,Wunderground v.1.15,2013-03-14 11:30:00,
2013-03-14 01:40:00,67.9,59.7,30.01,ESE,114,3.0,4.0,75,0.00,,,0.00,Wunderground v.1.15,2013-03-14 11:40:00,
2013-03-14 01:50:00,67.8,59.6,30.01,ESE,115,3.0,3.0,75,0.00,,,0.00,Wunderground v.1.15,2013-03-14 11:50:00,
2013-03-14 02:00:00,67.6,59.4,30.00,ESE,115,2.0,2.0,75,0.00,,,0.00,Wunderground v.1.15,2013-03-14 12:00:00,
2013-03-14 02:05:00,67.5,59.3,30.01,ESE,116,1.0,2.0,75,0.00,,,0.00,Wunderground v.1.15,2013-03-14 12:05:00,
2013-03-14 02:15:00,67.4,59.6,30.01,ESE,116,1.0,3.0,76,0.00,,,0.00,Wunderground v.1.15,2013-03-14 12:15:00,
2013-03-14 02:25:00,67.6,59.4,30.01,ESE,116,2.0,2.0,75,0.00,,,0.00,Wunderground v.1.15,2013-03-14 12:25:00,
2013-03-14 02:35:00,67.8,59.6,30.01,ESE,116,2.0,3.0,75,0.00,,,0.00,Wunderground v.1.15,2013-03-14 12:35:00,
2013-03-14 02:40:00,67.9,59.7,30.01,ESE,116,2.0,3.0,75,0.00,,,0.00,Wunderground v.1.15,2013-03-14 12:40:00,
2013-03-14 02:50:00,68.0,59.8,30.01,ESE,116,2.0,2.0,75,0.00,,,0.00,Wunderground v.1.15,2013-03-14 12:50:00,
2013-03-14 03:00:00,68.0,59.8,30.00,ESE,117,2.0,5.0,75,0.00,,,0.00,Wunderground v.1.15,2013-03-14 13:00:00,
2013-03-14 03:05:00,68.1,59.9,30.00,ESE,117,3.0,5.0,75,0.00,,,0.00,Wunderground v.1.15,2013-03-14 13:05:00,
2013-03-14 03:15:00,68.1,59.9,30.00,ESE,117,3.0,5.0,75,0.00,,,0.00,Wunderground v.1.15,2013-03-14 13:15:00,
2013-03-14 03:20:00,68.0,60.2,30.00,ESE,114,2.0,4.0,76,0.00,,,0.00,Wunderground v.1.15,2013-03-14 13:20:00,
2013-03-14 03:29:00,68.0,60.2,30.01,ESE,114,2.0,2.0,76,0.00,,,0.00,Wunderground v.1.15,2013-03-14 13:29:00,
2013-03-14 03:35:00,67.9,60.1,30.00,ESE,115,2.0,2.0,76,0.00,,,0.00,Wunderground v.1.15,2013-03-14 13:35:00,
2013-03-14 03:45:00,67.8,60.0,30.00,ESE,117,3.0,3.0,76,0.00,,,0.00,Wunderground v.1.15,2013-03-14 13:45:00,
2013-03-14 03:55:00,67.8,60.0,30.00,ESE,116,3.0,3.0,76,0.00,,,0.00,Wunderground v.1.15,2013-03-14 13:55:00,
2013-03-14 04:05:00,67.9,60.4,30.00,ESE,114,2.0,2.0,77,0.00,,,0.00,Wunderground v.1.15,2013-03-14 14:05:00,
2013-03-14 04:15:00,67.9,60.4,30.00,ESE,113,2.0,4.0,77,0.00,,,0.00,Wunderground v.1.15,2013-03-14 14:15:00,
2013-03-14 04:25:00,67.9,60.4,30.00,ESE,113,2.0,3.0,77,0.00,,,0.00,Wunderground v.1.15,2013-03-14 14:25:00,
2013-03-14 04:35:00,67.9,60.4,30.00,ESE,115,2.0,3.0,77,0.00,,,0.00,Wunderground v.1.15,2013-03-14 14:35:00,
2013-03-14 04:45:00,67.7,60.2,30.00,ESE,115,2.0,3.0,77,0.00,,,0.00,Wunderground v.1.15,2013-03-14 14:45:00,
2013-03-14 04:50:00,67.7,60.2,30.00,ESE,115,2.0,3.0,77,0.00,,,0.00,Wunderground v.1.15,2013-03-14 14:50:00,
2013-03-14 05:00:00,67.7,60.2,29.99,ESE,115,3.0,3.0,77,0.00,,,0.00,Wunderground v.1.15,2013-03-14 15:00:00,
2013-03-14 05:05:00,67.7,59.9,30.00,ESE,116,3.0,4.0,76,0.00,,,0.00,Wunderground v.1.15,2013-03-14 15:05:00,
2013-03-14 05:15:00,67.8,60.0,29.99,ESE,117,3.0,4.0,76,0.00,,,0.00,Wunderground v.1.15,2013-03-14 15:15:00,
2013-03-14 05:25:00,68.0,60.2,30.00,ESE,115,2.0,3.0,76,0.00,,,0.00,Wunderground v.1.15,2013-03-14 15:25:00,
2013-03-14 05:35:00,68.1,60.2,29.99,ESE,115,2.0,4.0,76,0.00,,,0.00,Wunderground v.1.15,2013-03-14 15:35:00,
2013-03-14 05:45:00,68.0,60.2,29.99,ESE,115,1.0,2.0,76,0.00,,,0.00,Wunderground v.1.15,2013-03-14 15:45:00,
2013-03-14 05:55:00,67.8,60.3,30.00,ESE,115,0.0,0.0,77,0.00,,,0.00,Wunderground v.1.15,2013-03-14 15:55:00,
2013-03-14 06:05:00,67.7,60.6,29.99,ESE,115,0.0,0.0,78,0.00,,,0.00,Wunderground v.1.15,2013-03-14 16:05:00,
2013-03-14 06:15:00,67.5,60.4,30.00,ESE,115,0.0,0.0,78,0.00,,,0.00,Wunderground v.1.15,2013-03-14 16:15:00,
2013-03-14 06:25:00,67.5,60.8,30.00,ESE,115,0.0,0.0,79,0.00,,,0.00,Wunderground v.1.15,2013-03-14 16:25:00,
2013-03-14 06:35:00,67.5,61.5,30.01,ESE,115,0.0,0.0,81,0.00,,,0.00,Wunderground v.1.15,2013-03-14 16:35:00,
2013-03-14 06:40:00,67.6,61.6,30.01,ESE,115,0.0,0.0,81,0.00,,,0.00,Wunderground v.1.15,2013-03-14 16:40:00,
2013-03-14 06:50:00,67.5,61.1,30.02,ESE,115,1.0,1.0,80,0.00,,,0.00,Wunderground v.1.15,2013-03-14 16:50:00,
2013-03-14 07:00:00,67.5,60.4,30.02,ESE,115,1.0,1.0,78,0.00,,,0.00,Wunderground v.1.15,2013-03-14 17:00:00,
2013-03-14 07:05:00,67.4,60.3,30.02,ESE,115,0.0,1.0,78,0.00,,,0.00,Wunderground v.1.15,2013-03-14 17:05:00,
2013-03-14 07:15:00,67.2,60.5,30.02,ESE,115,0.0,0.0,79,0.00,,,0.00,Wunderground v.1.15,2013-03-14 17:15:00,
2013-03-14 07:20:00,67.2,60.8,30.02,ESE,115,0.0,0.0,80,0.00,,,0.00,Wunderground v.1.15,2013-03-14 17:20:00,
2013-03-14 07:30:00,67.4,61.0,30.02,ESE,115,0.0,2.0,80,0.00,,,0.00,Wunderground v.1.15,2013-03-14 17:30:00,
2013-03-14 07:40:00,67.8,61.0,30.02,ESE,115,0.0,0.0,79,0.00,,,0.00,Wunderground v.1.15,2013-03-14 17:40:00,
2013-03-14 07:49:00,68.4,61.3,30.02,ESE,115,0.0,0.0,78,0.00,,,0.00,Wunderground v.1.15,2013-03-14 17:49:00,
2013-03-14 07:55:00,68.9,61.0,30.02,ESE,115,0.0,0.0,76,0.00,,,0.00,Wunderground v.1.15,2013-03-14 17:55:00,
2013-03-14 08:05:00,69.7,61.4,30.02,ESE,115,0.0,1.0,75,0.00,,,0.00,Wunderground v.1.15,2013-03-14 18:05:00,
2013-03-14 08:15:00,70.4,61.3,30.02,ESE,115,0.0,0.0,73,0.00,,,0.00,Wunderground v.1.15,2013-03-14 18:15:00,
2013-03-14 08:25:00,70.8,62.1,30.03,ESE,115,0.0,0.0,74,0.00,,,0.00,Wunderground v.1.15,2013-03-14 18:25:00,
2013-03-14 08:35:00,71.0,61.9,30.03,ESE,115,0.0,0.0,73,0.00,,,0.00,Wunderground v.1.15,2013-03-14 18:35:00,
2013-03-14 08:40:00,71.2,62.1,30.03,ESE,115,0.0,0.0,73,0.00,,,0.00,Wunderground v.1.15,2013-03-14 18:40:00,
2013-03-14 08:45:00,71.3,62.2,30.03,ESE,115,0.0,0.0,73,0.00,,,0.00,Wunderground v.1.15,2013-03-14 18:45:00,
2013-03-14 08:55:00,71.6,62.9,30.04,ESE,115,0.0,0.0,74,0.00,,,0.00,Wunderground v.1.15,2013-03-14 18:55:00,
2013-03-14 09:00:00,71.8,62.7,30.04,ESE,115,0.0,0.0,73,0.00,,,0.00,Wunderground v.1.15,2013-03-14 19:00:00,
2013-03-14 09:05:00,72.1,63.4,30.04,ESE,115,0.0,0.0,74,0.00,,,0.00,Wunderground v.1.15,2013-03-14 19:05:00,
2013-03-14 09:15:00,72.4,63.6,30.05,ESE,115,0.0,1.0,74,0.00,,,0.00,Wunderground v.1.15,2013-03-14 19:15:00,
2013-03-14 09:25:00,72.5,63.4,30.05,ESE,115,0.0,0.0,73,0.00,,,0.00,Wunderground v.1.15,2013-03-14 19:25:00,
2013-03-14 09:35:00,73.1,64.3,30.05,ESE,115,1.0,1.0,74,0.00,,,0.00,Wunderground v.1.15,2013-03-14 19:35:00,
2013-03-14 09:45:00,73.7,64.5,30.06,ESE,115,1.0,1.0,73,0.00,,,0.00,Wunderground v.1.15,2013-03-14 19:45:00,
2013-03-14 09:50:00,73.9,65.1,30.06,ESE,115,1.0,1.0,74,0.00,,,0.00,Wunderground v.1.15,2013-03-14 19:50:00,
2013-03-14 10:00:00,74.0,65.2,30.06,ESE,109,2.0,2.0,74,0.00,,,0.00,Wunderground v.1.15,2013-03-14 20:00:00,
2013-03-14 10:05:00,74.1,65.3,30.05,ESE,108,2.0,2.0,74,0.00,,,0.00,Wunderground v.1.15,2013-03-14 20:05:00,
2013-03-14 10:15:00,74.6,64.6,30.06,East,101,3.0,4.0,71,0.00,,,0.00,Wunderground v.1.15,2013-03-14 20:15:00,
2013-03-14 10:25:00,74.8,65.6,30.06,East,82,3.0,3.0,73,0.00,,,0.00,Wunderground v.1.15,2013-03-14 20:25:00,
2013-03-14 10:35:00,75.1,65.9,30.05,ENE,70,3.0,3.0,73,0.00,,,0.00,Wunderground v.1.15,2013-03-14 20:35:00,
2013-03-14 10:40:00,75.3,66.0,30.04,ENE,65,3.0,3.0,73,0.00,,,0.00,Wunderground v.1.15,2013-03-14 20:40:00,
2013-03-14 10:50:00,75.7,65.2,30.04,NE,55,4.0,5.0,70,0.00,,,0.00,Wunderground v.1.15,2013-03-14 20:50:00,
2013-03-14 11:00:00,75.6,64.7,30.04,NE,50,4.0,5.0,69,0.00,,,0.00,Wunderground v.1.15,2013-03-14 21:00:00,
2013-03-14 11:05:00,75.8,65.7,30.04,NE,40,4.0,5.0,71,0.00,,,0.00,Wunderground v.1.15,2013-03-14 21:05:00,
2013-03-14 11:15:00,75.6,65.9,30.04,NE,40,4.0,5.0,72,0.00,,,0.00,Wunderground v.1.15,2013-03-14 21:15:00,
2013-03-14 11:25:00,76.1,66.0,30.03,NNE,29,4.0,6.0,71,0.00,,,0.00,Wunderground v.1.15,2013-03-14 21:25:00,
2013-03-14 11:35:00,75.8,66.5,30.03,NE,34,5.0,5.0,73,0.00,,,0.00,Wunderground v.1.15,2013-03-14 21:35:00,
2013-03-14 11:45:00,76.2,66.5,30.02,NNE,33,4.0,4.0,72,0.00,,,0.00,Wunderground v.1.15,2013-03-14 21:45:00,
2013-03-14 11:55:00,77.3,65.1,30.02,NNE,30,3.0,5.0,66,0.00,,,0.00,Wunderground v.1.15,2013-03-14 21:55:00,
2013-03-14 12:05:00,77.1,66.1,30.01,NNE,30,4.0,4.0,69,0.00,,,0.00,Wunderground v.1.15,2013-03-14 22:05:00,
2013-03-14 12:15:00,77.2,66.7,30.00,NNE,30,4.0,6.0,70,0.00,,,0.00,Wunderground v.1.15,2013-03-14 22:15:00,
2013-03-14 12:20:00,77.3,65.9,30.01,NNE,32,3.0,3.0,68,0.00,,,0.00,Wunderground v.1.15,2013-03-14 22:20:00,
2013-03-14 12:30:00,76.9,66.8,30.00,NE,40,4.0,4.0,71,0.00,,,0.00,Wunderground v.1.15,2013-03-14 22:30:00,
2013-03-14 12:35:00,76.9,66.8,30.00,NE,40,3.0,5.0,71,0.00,,,0.00,Wunderground v.1.15,2013-03-14 22:35:00,
2013-03-14 12:40:00,76.4,66.3,30.00,NE,38,3.0,3.0,71,0.00,,,0.00,Wunderground v.1.15,2013-03-14 22:40:00,
2013-03-14 12:50:00,75.4,66.9,30.01,NNE,32,4.0,7.0,75,0.00,,,0.00,Wunderground v.1.15,2013-03-14 22:50:00,
2013-03-14 13:00:00,75.2,67.5,30.00,NNE,33,4.0,4.0,77,0.00,,,0.00,Wunderground v.1.15,2013-03-14 23:00:00,
2013-03-14 13:05:00,75.7,67.6,30.00,NNE,33,3.0,4.0,76,0.00,,,0.00,Wunderground v.1.15,2013-03-14 23:05:00,
2013-03-14 13:15:00,75.9,67.4,29.99,NE,35,4.0,5.0,75,0.00,,,0.00,Wunderground v.1.15,2013-03-14 23:15:00,
2013-03-14 13:25:00,75.8,67.7,29.99,NE,34,4.0,6.0,76,0.00,,,0.00,Wunderground v.1.15,2013-03-14 23:25:00,
2013-03-14 13:30:00,76.0,67.1,30.00,NNE,33,3.0,3.0,74,0.00,,,0.00,Wunderground v.1.15,2013-03-14 23:30:00,
2013-03-14 13:35:00,76.5,67.6,29.99,NNE,33,3.0,6.0,74,0.00,,,0.00,Wunderground v.1.15,2013-03-14 23:35:00,
2013-03-14 13:45:00,76.7,66.6,29.97,NE,36,3.0,3.0,71,0.00,,,0.00,Wunderground v.1.15,2013-03-14 23:45:00,
2013-03-14 13:55:00,77.4,66.4,29.98,NE,36,2.0,3.0,69,0.00,,,0.00,Wunderground v.1.15,2013-03-14 23:55:00,
2013-03-14 14:00:00,77.0,67.3,29.98,NE,35,2.0,4.0,72,0.00,,,0.00,Wunderground v.1.15,2013-03-15 00:00:00,
2013-03-14 14:05:00,76.9,67.2,29.98,NE,34,4.0,4.0,72,0.00,,,0.00,Wunderground v.1.15,2013-03-15 00:05:00,
2013-03-14 14:15:00,76.1,66.8,29.97,NNE,33,3.0,3.0,73,0.00,,,0.00,Wunderground v.1.15,2013-03-15 00:15:00,
2013-03-14 14:25:00,75.7,67.2,29.97,NNE,33,3.0,5.0,75,0.00,,,0.00,Wunderground v.1.15,2013-03-15 00:25:00,
2013-03-14 14:35:00,75.8,66.9,29.96,NNE,33,4.0,6.0,74,0.00,,,0.00,Wunderground v.1.15,2013-03-15 00:35:00,
2013-03-14 14:40:00,75.9,67.0,29.96,NNE,33,4.0,4.0,74,0.00,,,0.00,Wunderground v.1.15,2013-03-15 00:40:00,
2013-03-14 14:50:00,75.0,66.9,29.96,NNE,32,4.0,5.0,76,0.00,,,0.00,Wunderground v.1.15,2013-03-15 00:50:00,
2013-03-14 15:00:00,74.7,67.0,29.96,NE,40,4.0,4.0,77,0.00,,,0.00,Wunderground v.1.15,2013-03-15 01:00:00,
2013-03-14 15:05:00,74.8,67.1,29.96,ENE,58,4.0,4.0,77,0.00,,,0.00,Wunderground v.1.15,2013-03-15 01:05:00,
2013-03-14 15:15:00,75.3,66.4,29.95,NE,42,4.0,4.0,74,0.00,,,0.00,Wunderground v.1.15,2013-03-15 01:15:00,
2013-03-14 15:25:00,75.1,65.9,29.95,NE,54,3.0,5.0,73,0.00,,,0.00,Wunderground v.1.15,2013-03-15 01:25:00,
2013-03-14 15:35:00,74.8,65.6,29.95,NE,53,3.0,3.0,73,0.00,,,0.00,Wunderground v.1.15,2013-03-15 01:35:00,
2013-03-14 15:45:00,75.0,66.5,29.95,NE,52,3.0,3.0,75,0.00,,,0.00,Wunderground v.1.15,2013-03-15 01:45:00,
2013-03-14 15:55:00,74.8,66.0,29.95,NE,49,3.0,5.0,74,0.00,,,0.00,Wunderground v.1.15,2013-03-15 01:55:00,
2013-03-14 16:05:00,74.9,65.3,29.95,NE,49,2.0,3.0,72,0.00,,,0.00,Wunderground v.1.15,2013-03-15 02:05:00,
2013-03-14 16:15:00,74.9,65.3,29.95,NE,49,1.0,3.0,72,0.00,,,0.00,Wunderground v.1.15,2013-03-15 02:15:00,
2013-03-14 16:25:00,74.7,65.1,29.95,NE,49,1.0,3.0,72,0.00,,,0.00,Wunderground v.1.15,2013-03-15 02:25:00,
2013-03-14 16:35:00,74.8,64.8,29.95,NE,49,1.0,1.0,71,0.00,,,0.00,Wunderground v.1.15,2013-03-15 02:35:00,
2013-03-14 16:45:00,74.7,65.5,29.96,NE,49,1.0,3.0,73,0.00,,,0.00,Wunderground v.1.15,2013-03-15 02:45:00,
2013-03-14 16:55:00,74.5,64.9,29.95,NE,49,1.0,1.0,72,0.00,,,0.00,Wunderground v.1.15,2013-03-15 02:55:00,
2013-03-14 17:05:00,74.6,65.4,29.96,NE,49,0.0,1.0,73,0.00,,,0.00,Wunderground v.1.15,2013-03-15 03:05:00,
2013-03-14 17:15:00,74.6,64.2,29.96,NE,49,1.0,1.0,70,0.00,,,0.00,Wunderground v.1.15,2013-03-15 03:15:00,
2013-03-14 17:25:00,74.5,64.1,29.97,NE,49,0.0,0.0,70,0.00,,,0.00,Wunderground v.1.15,2013-03-15 03:25:00,
2013-03-14 17:35:00,74.4,63.6,29.96,NE,49,0.0,0.0,69,0.00,,,0.00,Wunderground v.1.15,2013-03-15 03:35:00,
2013-03-14 17:45:00,74.2,64.2,29.96,NE,49,0.0,0.0,71,0.00,,,0.00,Wunderground v.1.15,2013-03-15 03:45:00,
2013-03-14 17:55:00,74.1,64.1,29.96,NE,49,0.0,0.0,71,0.00,,,0.00,Wunderground v.1.15,2013-03-15 03:55:00,
2013-03-14 18:00:00,74.0,64.0,29.97,NE,49,0.0,0.0,71,0.00,,,0.00,Wunderground v.1.15,2013-03-15 04:00:00,
2013-03-14 18:05:00,73.9,64.7,29.97,NE,49,0.0,0.0,73,0.00,,,0.00,Wunderground v.1.15,2013-03-15 04:05:00,
2013-03-14 18:15:00,73.5,65.5,29.97,NE,49,0.0,0.0,76,0.00,,,0.00,Wunderground v.1.15,2013-03-15 04:15:00,
2013-03-14 18:20:00,73.3,65.3,29.97,NE,49,0.0,0.0,76,0.00,,,0.00,Wunderground v.1.15,2013-03-15 04:20:00,
2013-03-14 18:30:00,73.1,65.5,29.97,NE,49,0.0,0.0,77,0.00,,,0.00,Wunderground v.1.15,2013-03-15 04:30:00,
2013-03-14 18:40:00,72.7,65.1,29.97,NE,49,1.0,1.0,77,0.00,,,0.00,Wunderground v.1.15,2013-03-15 04:40:00,
2013-03-14 18:50:00,72.4,65.2,29.96,NE,49,1.0,1.0,78,0.00,,,0.00,Wunderground v.1.15,2013-03-15 04:50:00,
2013-03-14 19:00:00,72.1,64.9,29.97,NE,49,1.0,3.0,78,0.00,,,0.00,Wunderground v.1.15,2013-03-15 05:00:00,
2013-03-14 19:05:00,71.9,64.7,29.97,NE,49,1.0,3.0,78,0.00,,,0.00,Wunderground v.1.15,2013-03-15 05:05:00,
2013-03-14 19:15:00,71.7,64.5,29.97,NE,49,0.0,0.0,78,0.00,,,0.00,Wunderground v.1.15,2013-03-15 05:15:00,
2013-03-14 19:25:00,71.6,64.4,29.97,NE,49,0.0,0.0,78,0.00,,,0.00,Wunderground v.1.15,2013-03-15 05:25:00,
2013-03-14 19:35:00,71.4,63.8,29.97,NE,49,0.0,0.0,77,0.00,,,0.00,Wunderground v.1.15,2013-03-15 05:35:00,
2013-03-14 19:45:00,71.3,63.7,29.97,NE,49,0.0,0.0,77,0.00,,,0.00,Wunderground v.1.15,2013-03-15 05:45:00,
2013-03-14 19:55:00,71.1,63.5,29.97,NE,49,0.0,0.0,77,0.00,,,0.00,Wunderground v.1.15,2013-03-15 05:55:00,
2013-03-14 20:05:00,70.7,63.1,29.98,NE,49,0.0,0.0,77,0.00,,,0.00,Wunderground v.1.15,2013-03-15 06:05:00,
2013-03-14 20:15:00,70.4,62.5,29.98,NE,49,0.0,0.0,76,0.00,,,0.00,Wunderground v.1.15,2013-03-15 06:15:00,
2013-03-14 20:25:00,70.2,62.6,29.98,NE,49,0.0,1.0,77,0.00,,,0.00,Wunderground v.1.15,2013-03-15 06:25:00,
2013-03-14 20:35:00,70.1,62.6,29.99,NE,49,0.0,0.0,77,0.00,,,0.00,Wunderground v.1.15,2013-03-15 06:35:00,
2013-03-14 20:45:00,69.9,62.4,29.99,NE,49,0.0,0.0,77,0.00,,,0.00,Wunderground v.1.15,2013-03-15 06:45:00,
2013-03-14 20:55:00,69.8,62.3,29.99,NE,49,0.0,0.0,77,0.00,,,0.00,Wunderground v.1.15,2013-03-15 06:55:00,
2013-03-14 21:05:00,69.7,62.9,29.99,NE,49,0.0,1.0,79,0.00,,,0.00,Wunderground v.1.15,2013-03-15 07:05:00,
2013-03-14 21:15:00,69.7,63.3,30.00,NE,49,0.0,0.0,80,0.00,,,0.00,Wunderground v.1.15,2013-03-15 07:15:00,
2013-03-14 21:20:00,69.6,63.2,30.00,NE,49,0.0,0.0,80,0.00,,,0.00,Wunderground v.1.15,2013-03-15 07:20:00,
2013-03-14 21:30:00,69.6,63.5,29.99,NE,49,0.0,0.0,81,0.00,,,0.00,Wunderground v.1.15,2013-03-15 07:30:00,
2013-03-14 21:40:00,69.7,63.6,30.00,NE,49,0.0,0.0,81,0.00,,,0.00,Wunderground v.1.15,2013-03-15 07:40:00,
2013-03-14 21:50:00,69.6,63.5,30.00,NE,49,0.0,0.0,81,0.00,,,0.00,Wunderground v.1.15,2013-03-15 07:50:00,
2013-03-14 22:00:00,69.5,63.4,29.99,NE,49,0.0,0.0,81,0.00,,,0.00,Wunderground v.1.15,2013-03-15 08:00:00,
2013-03-14 22:05:00,69.4,63.7,29.99,NE,49,0.0,0.0,82,0.00,,,0.00,Wunderground v.1.15,2013-03-15 08:05:00,
2013-03-14 22:15:00,69.2,63.1,29.99,NE,49,0.0,0.0,81,0.00,,,0.00,Wunderground v.1.15,2013-03-15 08:15:00,
2013-03-14 22:25:00,69.1,63.4,30.00,NE,49,0.0,0.0,82,0.00,,,0.00,Wunderground v.1.15,2013-03-15 08:25:00,
2013-03-14 22:35:00,69.1,63.4,30.00,NE,49,0.0,0.0,82,0.00,,,0.00,Wunderground v.1.15,2013-03-15 08:35:00,
2013-03-14 22:40:00,69.1,63.4,29.99,NE,49,0.0,1.0,82,0.00,,,0.00,Wunderground v.1.15,2013-03-15 08:40:00,
2013-03-14 22:50:00,69.2,63.5,29.98,NE,49,0.0,0.0,82,0.00,,,0.00,Wunderground v.1.15,2013-03-15 08:50:00,
2013-03-14 23:00:00,69.1,63.4,29.98,NE,49,0.0,0.0,82,0.00,,,0.00,Wunderground v.1.15,2013-03-15 09:00:00,
2013-03-14 23:05:00,69.1,63.4,29.98,NE,49,0.0,0.0,82,0.00,,,0.00,Wunderground v.1.15,2013-03-15 09:05:00,
2013-03-14 23:15:00,69.0,63.3,29.98,NE,49,0.0,0.0,82,0.00,,,0.00,Wunderground v.1.15,2013-03-15 09:15:00,
2013-03-14 23:25:00,69.0,63.3,29.98,NE,49,0.0,0.0,82,0.00,,,0.00,Wunderground v.1.15,2013-03-15 09:25:00,
2013-03-14 23:35:00,68.9,63.5,29.97,NE,49,0.0,0.0,83,0.00,,,0.00,Wunderground v.1.15,2013-03-15 09:35:00,
2013-03-14 23:45:00,68.8,63.4,29.97,NE,49,0.0,0.0,83,0.00,,,0.00,Wunderground v.1.15,2013-03-15 09:45:00,
2013-03-14 23:55:00,68.6,63.6,29.97,NE,49,0.0,0.0,84,0.00,,,0.00,Wunderground v.1.15,2013-03-15 09:55:00,